User: anonymous   Login
Location: ?
(35.4214°N, 139.3011°E)
Time: 13:03:27
(UTC+00:00)
Language:

BREEZE M DEB (TANK) - Orbit

View from above orbital plane
View from above orbital plane
View from above satellite
View from above satellite

Ground track
Ground track

The orbit data is extracted from the following two-line orbital elements,

1 28528U 05003C   20271.77124966 +.00003452 +00000-0 +50709-3 0  9995
2 28528 049.5535 055.9121 5164330 175.5115 192.1981 05.36127424298114
Epoch (UTC): 27 September 2020 18:30:35
Eccentricity: 0.5164330
inclination: 49.5535°
perigee height: 290 km
apogee height: 14533 km
right ascension of ascending node: 55.9121°
argument of perigee: 175.5115°
revolutions per day: 5.36127424
mean anomaly at epoch: 192.1981°
orbit number at epoch: 29811

The dashed part of the orbit path shows where the satellite is in the earth's shadow,  

DLR